Theta_e
326 325 326 325 327 327 328 328 329 329 331 331 330 328 326 328 327 327 328 330 329 328 329 332 331 333 329 329 328 329 326 323
323 323 323 323 323 323 324 324 323 324 327 328 329 328 328 327 327 327 323 324 327 327 327 329 328 328 326 325 325 325 324 324
322 323 323 323 320 318 318 321 319 318 318 320 323 324 323 322 321 321 324 324 325 326 325 327 326 325 323 323 322 321 322 322
320 320 317 316 316 315 314 313 313 313 312 314 316 314 318 320 319 319 318 316 317 319 320 321 321 323 323 322 322 321 320 320
319 319 315 313 313 312 313 315 311 311 310 310 310 310 312 314 318 318 316 314 313 313 313 313 314 318 321 322 321 319 315 316
317 316 314 315 314 313 312 314 310 309 309 309 308 309 311 315 315 315 319 316 314 312 311 311 312 312 316 320 320 318 317 315
315 317 315 314 314 314 313 312 310 309 309 310 308 308 308 310 313 314 319 319 318 310 309 308 307 310 311 313 316 313 312 313
316 317 319 317 318 316 316 313 310 308 308 309 308 307 307 307 309 313 314 313 315 313 309 307 307 307 307 307 308 311 313 310
317 320 320 317 317 316 314 311 309 307 306 306 306 304 305 305 308 310 313 313 315 311 307 307 307 306 306 306 307 307 308 313
318 315 315 316 315 313 309 308 307 308 306 305 304 304 304 304 307 310 313 314 312 310 307 306 306 306 306 306 305 305 306 309
313 311 311 310 309 308 308 307 306 306 306 305 304 304 304 304 305 309 310 312 314 313 310 310 307 306 305 305 305 304 303 305
308 308 310 308 310 309 306 305 304 307 306 303 302 301 299 301 302 303 305 310 311 310 310 310 307 307 306 305 310 306 304 302
307 307 306 308 307 305 305 305 304 304 305 303 300 298 299 300 299 300 301 302 305 308 308 307 306 305 306 306 306 306 305 304
309 306 304 303 304 305 304 303 302 303 302 301 299 298 297 297 297 298 299 300 301 304 306 305 306 307 308 306 305 306 307 306
301 301 300 300 300 301 303 301 301 301 302 301 300 298 298 297 297 297 297 297 299 304 307 307 310 311 309 306 305 306 305 306
299 299 299 299 300 300 300 299 300 301 301 300 300 299 301 299 298 301 298 299 305 310 310 311 312 311 307 306 307 304 304 304
298 298 299 299 299 299 298 300 302 300 299 300 301 300 300 300 301 300 305 307 308 308 308 309 311 309 307 307 306 303 305 304
296 297 297 298 297 298 299 302 300 300 300 300 301 300 300 301 300 300 306 305 305 304 304 307 306 306 307 307 307 307 304 303
296 296 297 297 298 299 300 300 300 300 300 300 300 300 300 300 299 300 301 301 302 303 303 304 304 304 305 308 308 308 308 304
296 296 297 298 297 299 300 300 301 302 302 301 302 302 300 299 299 300 300 300 301 302 301 301 301 302 303 304 307 308 307 306
Wind_Speed
9 8 5 6 6 9 10 9 9 9 7 4 3 2 3 3 5 4 4 3 3 3 3 3 3 4 2 3 3 3 4 3
7 8 8 8 10 9 9 9 8 8 5 4 3 3 3 3 3 4 4 3 4 3 3 3 3 3 3 3 2 3 4 5
6 5 6 8 9 8 7 7 7 6 6 4 4 4 4 4 3 3 2 2 2 3 3 2 3 3 3 3 3 3 4 4
5 7 7 7 6 7 7 9 8 8 7 7 4 4 3 3 2 2 2 1 0 1 3 3 3 3 3 3 3 4 3 3
5 4 5 5 5 5 7 6 6 7 5 5 4 4 5 4 3 3 1 1 3 3 1 2 4 4 4 3 3 3 4 4
4 5 4 5 5 6 6 6 8 8 7 5 5 5 4 4 2 3 3 2 3 2 3 3 3 3 3 3 3 4 4 3
2 3 2 2 2 3 5 6 6 7 7 5 5 6 5 5 4 3 4 4 4 0 2 2 4 2 2 3 3 3 3 3
3 4 5 3 1 2 2 2 5 6 4 5 5 5 5 4 5 4 5 5 4 1 2 4 2 3 3 2 3 2 4 4
4 5 5 4 3 3 6 7 8 5 4 3 3 4 4 3 5 7 7 6 5 4 3 3 2 2 3 4 3 4 3 2
5 5 4 5 5 6 6 6 6 4 3 2 2 3 4 2 4 6 7 7 6 4 3 4 3 2 4 4 3 2 2 2
1 4 4 6 5 4 4 6 6 4 5 3 4 3 3 4 4 5 7 8 6 3 5 4 4 2 4 3 3 3 2 2
2 5 5 5 5 6 6 7 6 5 7 5 4 2 3 3 3 3 5 8 7 6 5 4 4 3 4 3 3 3 3 3
3 8 7 7 5 6 6 6 7 7 6 5 5 5 3 4 4 7 5 6 6 7 6 6 5 2 3 3 3 2 2 2
6 7 6 6 6 5 5 6 5 6 5 6 6 6 6 5 6 5 6 5 5 6 6 5 3 3 3 2 3 3 2 2
6 6 5 5 5 6 5 6 6 7 6 7 6 6 6 6 6 4 6 5 4 7 6 4 3 3 4 5 4 4 3 0
6 5 3 4 6 6 7 7 5 7 7 7 6 6 3 4 4 4 4 3 4 5 5 4 5 6 5 4 3 3 3 3
6 3 2 4 6 6 6 5 4 6 7 6 6 6 6 5 6 5 4 5 5 5 5 6 8 6 5 3 3 4 4 4
4 3 4 4 5 5 5 5 4 4 6 5 5 6 6 6 5 6 6 6 6 6 6 5 5 6 6 5 4 4 5 4
3 2 3 4 4 5 5 5 5 6 5 5 6 6 6 5 5 5 6 6 6 6 6 6 6 7 7 6 6 6 6 6
1 1 2 4 5 5 5 5 6 6 5 5 5 5 5 6 6 6 6 6 5 6 6 6 6 6 6 7 6 5 6 6
Wind_Direction
66 71 65 37 44 42 31 39 41 43 35 35 36 8 34 34 47 38 33 31 15 7 2 350 3 27 33 350 16 29 344 348
52 56 53 54 51 41 32 31 38 37 38 24 12 24 13 16 17 18 21 7 6 16 12 350 357 328 355 357 358 327 334 353
42 48 52 61 55 38 25 37 34 24 36 18 22 9 358 340 355 22 21 26 14 353 351 358 6 341 329 329 339 321 319 329
40 36 45 53 51 35 24 30 25 29 26 30 22 358 331 302 307 329 5 355 296 52 355 351 346 345 333 332 332 323 313 312
40 39 64 59 41 35 23 31 24 28 19 20 12 348 342 323 257 255 210 307 317 324 153 344 326 324 318 304 290 290 297 299
35 53 58 41 41 30 21 25 20 10 3 7 9 359 354 342 319 263 265 228 244 293 323 326 314 309 301 295 290 294 279 278
30 344 82 98 97 42 37 27 16 355 352 5 12 355 353 340 355 351 339 310 308 275 8 310 324 320 286 270 267 217 272 282
269 302 326 294 259 70 63 17 15 347 348 1 356 348 342 342 331 342 342 329 325 328 357 302 323 317 302 275 245 255 244 251
296 301 302 258 277 19 9 13 1 12 3 350 335 319 320 332 339 334 335 324 338 342 19 311 319 290 278 284 284 245 270 222
287 9 15 9 33 43 34 24 359 350 351 316 308 291 300 271 314 325 337 342 356 6 349 306 294 294 292 286 250 293 280 230
297 23 5 40 64 91 40 18 6 0 353 338 345 344 332 335 338 338 334 327 324 319 323 314 307 302 281 264 252 224 245 292
340 7 35 125 46 42 35 22 4 354 355 341 16 342 313 296 296 301 319 329 327 323 326 312 338 302 281 284 275 227 191 236
18 58 43 68 52 45 18 9 357 342 343 352 17 355 310 302 318 330 329 319 325 328 324 319 328 302 302 317 332 326 231 204
76 76 58 45 31 11 2 350 320 340 14 4 10 339 321 333 330 330 331 327 317 323 326 332 308 327 16 5 341 341 329 218
91 79 62 42 17 3 339 8 354 352 0 357 344 334 333 329 324 319 330 328 324 326 332 335 346 4 20 20 14 13 357 100
94 97 67 20 355 354 353 344 353 348 341 333 330 341 321 317 310 317 312 304 300 319 333 21 17 5 16 15 18 14 39 55
117 100 33 348 347 336 330 322 348 358 341 339 349 345 338 336 333 333 322 311 321 359 5 21 4 349 356 3 13 34 48 49
102 48 5 355 324 319 329 1 331 328 336 350 341 335 343 343 342 347 329 325 348 10 16 23 20 8 359 11 23 33 71 51
112 22 347 330 338 347 347 359 358 332 324 337 344 345 350 354 347 344 348 343 355 17 19 22 17 13 2 8 32 33 56 66
148 292 318 354 339 343 337 335 335 316 330 338 343 343 355 1 348 353 358 359 1 24 36 29 19 11 8 13 27 33 52 53